CZ-6A DEB, 56658

Orbit data source: Space-Track

CZ-6A DEB, 56658 is space debris in SSO originally from a launch on Fri, 11 Nov 2022 UTC launched from the Taiyaun Space Center, China (TSC). Debris objects in space refer to the collection of defunct objects orbiting the Earth. Examples of debris include non-operational satellites, rocket bodies, and fragments generated from explosions, collisions, or faulty payload assembly.

Loading next visibility...
Identifier
56658, 2022-151AGJ
Orbit
SSO
Country
Flag of CNCN / PRC
Related business
Manufacturer
SAST
Mission
Spacecraft
Bus & Motor
Unknown
Mass
Unknown
Launch date (UTC)
2022-11-11 (4 years ago)
Launch vehicle
Unknown
Launch site
Taiyaun Space Center, China (TSC)
Object type
Payload
Rocket body
Debris
Shape & HBR
Unknown shape, 0.1 m
Radar Cross Section
Medium (>0.1 m² and <1 m²)

Expand to show TLE details & history
Last TLE update: 15 hours ago

TLE from 15 hours ago
0 CZ-6A DEB
1 56658U 22151AGJ 26236.11138507  .00000253  00000-0  21452-3 0  9993
2 56658  98.8757 192.4641 0125992 244.2483 114.5630 13.92747635169382
Epoch: 2026-08-24T02:40Z
TLE epoch observation values (Epoch: 2026-08-24T02:40:23.670Z)
Latitude
0.00002°
Longitude
179.9677°
Altitude
961.066 km
Speed
7.351 km/s
True Right ascension
12h 49m 51s
True Declination
0° 00' 00"
Sunlit
Object was in daylight at epoch
Visualization orbit readout
Latitude
Unknown
Longitude
Unknown
Altitude
Unknown
Speed
Unknown
Apparent Right ascension
Unknown
Apparent Declination
Unknown
Sunlit
N/A
Visualization observer readout
Local Sidereal Time
08:53:22
Azimuth
Unknown
Elevation
Unknown
Doppler factor
Unknown
Orbital elements
Apogee altitude
1,008.123 km
Perigee altitude
824.317 km
Semi-major axis
7,294.357 km
Eccentricity
0.0126
Inclination
98.8757°
RAAN
192.4641°
Arg. of periapsis
244.2483°
True anomaly
115.86745°
Mean anomaly
114.563°
Eccentric anomaly
115.21609°
Mean motion
3.48388 °/min
Orbital period
103.33 mins
BSTAR
0.00021452
Loading maneuver chart data...
Computing Atmospheric mass density...

Documentation

Showing up to 5 results
|